Погода в Ивье

Беларусь     53˚55′51″N   25˚46′12″E
темп.,
°C
ветер,
м/с
пор.,
м/с
влажн.,
%
обл.,
%
осадки,
мм/ч
давл.,
гПа
погр.,
м
6 декабря, вс
вс600:00+3˚юв71488100 0.0 1024571
03:00+3˚юв7138699 0.0 1026649
06:00+2˚юв71485100 0.0 1025754
09:00+1˚юв71384100 0.0 1026712
12:00юв8148277 0.0 1027632
15:00+1˚юв8157142 0.0 1027681
18:00юв817680 0.0 1027579
21:00−2˚юв716620 0.0 1028542
7 декабря, пн
пн700:00−2˚юв716600 0.0 1028554
03:00−3˚юв716590 0.0 1028580
06:00−3˚юв715640 0.0 1027635
09:00−3˚юв815640 0.0 1027621
12:00−3˚юв815590 0.0 1027661
15:00−2˚юв815540 0.0 1027688
18:00−3˚юв815530 0.0 1027644
21:00−4˚юв816570 0.0 1027587
8 декабря, вт
вт800:00−4˚юв715690 0.0 1027666
03:00−5˚юв714700 0.0 1027609
06:00−5˚юв715670 0.0 1027564
09:00−5˚вюв713670 0.0 1027537
12:00−4˚юв713630 0.0 1027586
15:00−3˚юв613630 0.0 1027585
18:00−4˚вюв613670 0.0 1027539
21:00−4˚юв613680 0.0 1028627
9 декабря, ср
ср900:00−5˚юв512710 0.0 1028677
03:00−6˚юв5117531 0.0 1028621
06:00−6˚юв5117422 0.0 1028538
09:00−6˚вюв4117411 0.0 1028456
12:00−4˚вюв510660 0.0 1028477
15:00−3˚вюв59632 0.0 1027511
18:00−5˚вюв510710 0.0 1026530
21:00−5˚вюв510720 0.0 1026528
10 декабря, чт
чт1000:00−5˚вюв5107423 0.0 1025505
03:00−4˚вюв5108152 0.0 1025514
06:00−4˚вюв5108996 0.4 1024469
09:00−3˚вюв6118798 0.9 1023419
12:00−2˚вюв51192100 0.1 1023390
15:00−1˚юв61186100 0.1 1022625
18:00−1˚вюв61288100 0.1 1021433
21:00вюв61293100 1.3 1020478